Simultaneous Nadir Overpasses (SNOs) Predictions

Prediction of SNOs between AURA and NPP Satellite Orbit:

Table of predicted SNOs for the next 14.0 days since TLE Epoch: 7/26/2014
Index Date (AURA) Time (AURA) Lat,Lon (AURA) SZA (AURA ) Date (NPP) Time (NPP) Lat,Lon (NPP) SZA (NPP ) Distance(km) Time Diff (sec)
1 07/27/2014 14:13:46 74.90,-155.28 79.64 07/27/2014 14:12:42 74.89,-155.35 79.71 2.50 64
2 07/27/2014 15:02:48 -76.18, 16.02 101.83 07/27/2014 15:03:00 -76.19, 16.08 101.86 1.91 12
3 07/30/2014 06:30:12 75.48, -37.86 79.59 07/30/2014 06:29:29 75.49, -37.79 79.60 2.30 43
4 07/30/2014 07:19:24 -76.27, 132.13 101.32 07/30/2014 07:19:58 -76.27, 132.13 101.35 0.18 34
5 08/01/2014 22:46:56 75.39, 77.68 80.34 08/01/2014 22:46:30 75.38, 77.63 80.37 1.33 26
6 08/01/2014 23:36:02 -76.47,-111.40 100.91 08/01/2014 23:36:52 -76.48,-111.33 100.97 1.92 50
7 08/04/2014 15:03:43 75.46,-166.33 80.93 08/04/2014 15:03:28 75.45,-166.37 80.96 1.44 15
8 08/04/2014 15:52:50 -76.49, 4.49 100.27 08/04/2014 15:53:51 -76.50, 4.53 100.33 1.21 61
9 08/07/2014 07:20:33 75.65, -50.01 81.41 08/07/2014 07:20:23 75.66, -49.95 81.40 2.00 10




NCC Satellite Simultaneous Nadir Overpasses (SNOs) Prediction Service
